Zurück zum Katalog

STARLINK-31898

AktivKommunikationVLEO
NORAD 59905·PAYLOAD·🇺🇸 United States

Gestartet May 28, 2024 von Cape Canaveral Space Force Station

Loading…

Nächste Überflüge (nächste 24 Stunden)

TLE

AktuellSource: CelesTrak SupGP

Epoche: Sep 14, 2026, 20:49 UTC

1 59905C 24100W   26257.86784722 -.00017740  00000+0 -64268-3 0  2577
2 59905  43.0007 133.5875 0001374 267.7727 283.5458 15.27580638    10

Verfolge STARLINK-31898 in Echtzeit mit AllMySat

Download on the App Store